Overview Statistics Trail Chart Weather Telemetry Raw packets
 

This is the latest recevied weather packets stored in our database for station/object SR8WXL-13. If no packets are shown the sender has not sent any weather packets the latest 10 day(s).

<< 14 15 16 17 18 19 20 >>
Time Temp. Humidity Pressure Rain* Wind** Luminosity Snow
1788336339 21.11° C 64% 1036.2 hPa 0 mm - - -
1788335469 18.89° C 66% 1036.1 hPa 0 mm - - -
1788334694 20° C 65% 1036 hPa 0 mm - - -
1788333925 18.89° C 68% 1036.1 hPa 0 mm - - -
1788333154 18.89° C 67% 1036.2 hPa 0 mm - - -
1788332248 18.89° C 71% 1035.8 hPa 0 mm - - -
1788331493 17.78° C 72% 1035.9 hPa 0 mm - - -
1788330708 17.78° C 72% 1035.7 hPa 0 mm - - -
1788329909 17.22° C 78% 1035.4 hPa 0 mm - - -
1788329063 16.11° C 83% 1035.6 hPa 0 mm - - -
1788328289 13.89° C 90% 1035.6 hPa 0 mm - - -
1788327497 12.78° C 95% 1035.6 hPa 0 mm - - -
1788326630 12.22° C 97% 1035.5 hPa 0 mm - - -
1788325888 11.11° C 98% 1035.8 hPa 0 mm - - -
1788325093 11.11° C 98% 1035.6 hPa 0 mm - - -
1788324228 10° C 98% 1035.6 hPa 0 mm - - -
1788323493 10° C 98% 1035.4 hPa 0 mm - - -
1788322593 8.89° C 98% 1035.6 hPa 0 mm - - -
1788321853 8.89° C 98% 1035.5 hPa 0 mm - - -
1788321103 10° C 98% 1035.2 hPa 0 mm - - -
1788320278 10° C 97% 1035.5 hPa 0 mm - - -
1788319508 10° C 97% 1035.4 hPa 0 mm - - -
1788318643 10° C 97% 1035.6 hPa 0 mm - - -
1788317923 10° C 97% 1035.4 hPa 0 mm - - -
1788317164 10° C 96% 1035.6 hPa 0 mm - - -

* Rain latest hour (hover to see other rain measurements)
** Current wind speed in m/s (hover to see current wind gust speed)